LHA871 EFHK-EDDH

Flight info

Callsign LHA871
Flight time 1h 42m
Altitude 36000
Route NUNTO Y369 REKDO DCT KOSKA DCT UNGAV DCT ROSOK T906 RARUP
Aircraft B738/M-SDE1E2FGIJ1RWYZE3/S

Departure

Time 2026-04-23 19:55
Airport Helsinki Vantaa Airport (EFHK)

Arrival

Time 2026-04-23 21:37
Airport Hamburg Helmut Schmidt Airport (EDDH)
Time Latitude Longitude Altitude Speed Heading
2026-04-23 19:00 60.31672 24.96019 166 ft 0 kts 137°
2026-04-23 19:16 60.31805 24.96382 169 ft 0 kts 137°
2026-04-23 19:44 60.31823 24.96350 166 ft 4 kts 137°
2026-04-23 19:44 60.31839 24.96322 166 ft 4 kts 160°
2026-04-23 19:44 60.31861 24.96324 166 ft 4 kts 220°
2026-04-23 19:44 60.31877 24.96361 166 ft 4 kts 229°
2026-04-23 19:45 60.31893 24.96395 166 ft 1 kts 227°
2026-04-23 19:48 60.31873 24.96352 166 ft 12 kts 229°
2026-04-23 19:48 60.31857 24.96192 167 ft 12 kts 283°
2026-04-23 19:48 60.31907 24.96064 170 ft 12 kts 317°
2026-04-23 19:49 60.31911 24.95922 171 ft 11 kts 231°
2026-04-23 19:49 60.31851 24.95788 169 ft 16 kts 227°
2026-04-23 19:49 60.31759 24.95585 171 ft 22 kts 227°
2026-04-23 19:49 60.31658 24.95360 170 ft 21 kts 227°
2026-04-23 19:50 60.31560 24.95145 169 ft 19 kts 227°
2026-04-23 19:50 60.31471 24.94950 167 ft 19 kts 227°
2026-04-23 19:50 60.31385 24.94761 163 ft 18 kts 227°
2026-04-23 19:50 60.31300 24.94575 159 ft 18 kts 227°
2026-04-23 19:51 60.31216 24.94389 158 ft 18 kts 227°
2026-04-23 19:51 60.31136 24.94210 157 ft 17 kts 228°
2026-04-23 19:51 60.31067 24.94062 157 ft 11 kts 228°
2026-04-23 19:51 60.31036 24.93925 157 ft 11 kts 262°
2026-04-23 19:52 60.31043 24.93848 158 ft 0 kts 292°
2026-04-23 19:52 60.31045 24.93836 158 ft 7 kts 293°
2026-04-23 19:52 60.31144 24.93730 157 ft 15 kts 10°
2026-04-23 19:53 60.31208 24.93816 158 ft 0 kts 47°
2026-04-23 19:54 60.31327 24.94074 160 ft 67 kts 47°
2026-04-23 19:55 60.31815 24.95147 174 ft 136 kts 47°
2026-04-23 19:55 60.32581 24.96807 390 ft 173 kts 46°
2026-04-23 19:55 60.33403 24.98454 1409 ft 160 kts 40°
2026-04-23 19:55 60.34200 25.00124 2157 ft 171 kts 47°
2026-04-23 19:56 60.35038 25.02063 2533 ft 202 kts 47°
2026-04-23 19:56 60.36022 25.04314 2791 ft 224 kts 46°
2026-04-23 19:56 60.37083 25.06706 3297 ft 232 kts 46°
2026-04-23 19:56 60.38171 25.09141 3899 ft 235 kts 45°
2026-04-23 19:57 60.39292 25.11542 4567 ft 235 kts 37°
2026-04-23 19:57 60.40762 25.12784 5201 ft 229 kts
2026-04-23 19:57 60.41834 25.12958 5646 ft 229 kts
2026-04-23 19:57 60.43954 25.13009 6458 ft 231 kts 359°
2026-04-23 19:58 60.45563 25.13046 7076 ft 232 kts 359°
2026-04-23 19:58 60.47183 25.13082 7646 ft 234 kts 357°
2026-04-23 19:58 60.48750 25.12261 8178 ft 237 kts 330°
2026-04-23 19:58 60.49987 25.10004 8585 ft 251 kts 307°
2026-04-23 19:59 60.50590 25.06542 9032 ft 273 kts 278°
2026-04-23 19:59 60.50316 25.02671 9801 ft 285 kts 253°
2026-04-23 19:59 60.49326 24.99060 10383 ft 304 kts 241°
2026-04-23 19:59 60.48041 24.95418 10553 ft 331 kts 238°
2026-04-23 20:00 60.46602 24.91569 10812 ft 352 kts 237°
2026-04-23 20:00 60.45091 24.87580 11405 ft 360 kts 238°
2026-04-23 20:00 60.43558 24.83516 12090 ft 365 kts 238°
2026-04-23 20:00 60.42014 24.79391 12758 ft 370 kts 239°
2026-04-23 20:01 60.40453 24.75189 13417 ft 375 kts 239°
2026-04-23 20:01 60.38882 24.70940 14079 ft 380 kts 240°
2026-04-23 20:01 60.37295 24.66640 14759 ft 383 kts 240°
2026-04-23 20:01 60.35695 24.62300 15398 ft 387 kts 240°
2026-04-23 20:02 60.34078 24.57914 16002 ft 391 kts 241°
2026-04-23 20:02 60.32443 24.53479 16590 ft 396 kts 241°
2026-04-23 20:02 60.30783 24.48993 17168 ft 401 kts 242°
2026-04-23 20:02 60.29107 24.44475 17740 ft 404 kts 241°
2026-04-23 20:03 60.27410 24.39913 18242 ft 410 kts 242°
2026-04-23 20:03 60.25690 24.35301 18777 ft 414 kts 242°
2026-04-23 20:03 60.23950 24.30645 19336 ft 418 kts 242°
2026-04-23 20:03 60.22194 24.25952 19857 ft 422 kts 242°
2026-04-23 20:04 60.20420 24.21220 20362 ft 426 kts 242°
2026-04-23 20:04 60.18624 24.16436 20832 ft 431 kts 242°
2026-04-23 20:04 60.16810 24.11615 21325 ft 434 kts 242°
2026-04-23 20:04 60.15003 24.06823 21810 ft 438 kts 242°
2026-04-23 20:05 60.13758 24.03527 22096 ft 441 kts 242°
2026-04-23 20:05 60.11894 23.98595 22517 ft 445 kts 242°
2026-04-23 20:05 60.10014 23.93638 22954 ft 449 kts 242°
2026-04-23 20:05 60.08158 23.88594 23394 ft 447 kts 246°
2026-04-23 20:06 60.06624 23.83245 23774 ft 443 kts 252°
2026-04-23 20:06 60.05203 23.77746 24183 ft 445 kts 253°
2026-04-23 20:06 60.03802 23.72218 24639 ft 446 kts 253°
2026-04-23 20:06 60.02389 23.66678 25086 ft 448 kts 253°
2026-04-23 20:07 60.00956 23.61132 25483 ft 451 kts 253°
2026-04-23 20:07 59.99498 23.55561 25874 ft 453 kts 253°
2026-04-23 20:07 59.98025 23.49978 26245 ft 456 kts 253°
2026-04-23 20:07 59.96533 23.44361 26547 ft 460 kts 253°
2026-04-23 20:08 59.95047 23.38786 26886 ft 462 kts 253°
2026-04-23 20:08 59.93529 23.33115 27205 ft 465 kts 253°
2026-04-23 20:08 59.91999 23.27410 27512 ft 468 kts 253°
2026-04-23 20:08 59.90436 23.21597 27842 ft 470 kts 253°
2026-04-23 20:09 59.88906 23.15922 28170 ft 472 kts 253°
2026-04-23 20:09 59.87347 23.10147 28472 ft 475 kts 253°
2026-04-23 20:09 59.85778 23.04350 28762 ft 477 kts 253°
2026-04-23 20:09 59.84201 22.98539 29045 ft 479 kts 253°
2026-04-23 20:10 59.82612 22.92696 29336 ft 481 kts 253°
2026-04-23 20:10 59.81016 22.86842 29622 ft 483 kts 253°
2026-04-23 20:10 59.79413 22.80976 29881 ft 484 kts 253°
2026-04-23 20:10 59.77800 22.75093 30134 ft 486 kts 253°
2026-04-23 20:11 59.76177 22.69189 30423 ft 487 kts 253°
2026-04-23 20:11 59.74555 22.63311 30797 ft 485 kts 252°
2026-04-23 20:11 59.72935 22.57460 31186 ft 483 kts 252°
2026-04-23 20:11 59.71319 22.51631 31529 ft 482 kts 252°
2026-04-23 20:12 59.69703 22.45807 31829 ft 482 kts 252°
2026-04-23 20:12 59.68088 22.39997 32147 ft 481 kts 252°
2026-04-23 20:12 59.66473 22.34202 32469 ft 480 kts 252°
2026-04-23 20:12 59.64859 22.28427 32776 ft 480 kts 252°
2026-04-23 20:13 59.63243 22.22662 33056 ft 479 kts 252°
2026-04-23 20:13 59.61627 22.16906 33340 ft 479 kts 251°
2026-04-23 20:13 59.60008 22.11159 33614 ft 478 kts 251°
2026-04-23 20:13 59.58392 22.05435 33904 ft 477 kts 251°
2026-04-23 20:14 59.56775 21.99721 34188 ft 476 kts 251°
2026-04-23 20:14 59.55156 21.94019 34433 ft 476 kts 251°
2026-04-23 20:14 59.53541 21.88340 34705 ft 475 kts 251°
2026-04-23 20:14 59.51925 21.82670 34980 ft 474 kts 251°
2026-04-23 20:15 59.50311 21.77021 35205 ft 474 kts 250°
2026-04-23 20:15 59.48694 21.71373 35397 ft 474 kts 250°
2026-04-23 20:15 59.47073 21.65723 35597 ft 474 kts 250°
2026-04-23 20:15 59.45448 21.60081 35826 ft 474 kts 250°
2026-04-23 20:16 59.43819 21.54435 35906 ft 476 kts 250°
2026-04-23 20:16 59.40557 21.43162 35907 ft 477 kts 250°
2026-04-23 20:17 59.37277 21.31890 35902 ft 474 kts 250°
2026-04-23 20:17 59.33991 21.20639 35905 ft 471 kts 250°
2026-04-23 20:18 59.30737 21.09541 35909 ft 470 kts 249°
2026-04-23 20:18 59.27498 20.98545 35913 ft 469 kts 249°
2026-04-23 20:19 59.24235 20.87518 35932 ft 469 kts 249°
2026-04-23 20:19 59.20952 20.76473 35932 ft 471 kts 249°
2026-04-23 20:20 59.17321 20.65690 35931 ft 486 kts 237°
2026-04-23 20:20 59.12397 20.56388 35939 ft 496 kts 230°
2026-04-23 20:21 59.07294 20.47333 35944 ft 497 kts 230°
2026-04-23 20:21 59.02201 20.38234 35945 ft 498 kts 230°
2026-04-23 20:22 58.97128 20.29095 35943 ft 498 kts 231°
2026-04-23 20:22 58.92061 20.19958 35940 ft 497 kts 230°
2026-04-23 20:23 58.87004 20.10877 35949 ft 496 kts 230°
2026-04-23 20:23 58.81941 20.01831 35954 ft 495 kts 230°
2026-04-23 20:24 58.76879 19.92826 35957 ft 495 kts 230°
2026-04-23 20:24 58.71816 19.83856 35941 ft 494 kts 230°
2026-04-23 20:25 58.66762 19.74939 35957 ft 493 kts 230°
2026-04-23 20:25 58.61738 19.66112 35961 ft 492 kts 230°
2026-04-23 20:26 58.56679 19.57255 35964 ft 492 kts 230°
2026-04-23 20:26 58.51616 19.48430 35966 ft 492 kts 230°
2026-04-23 20:27 58.46539 19.39617 35966 ft 493 kts 230°
2026-04-23 20:27 58.41457 19.30835 35965 ft 493 kts 230°
2026-04-23 20:28 58.36363 19.22065 35974 ft 494 kts 230°
2026-04-23 20:28 58.31260 19.13316 35974 ft 494 kts 230°
2026-04-23 20:29 58.26152 19.04595 35971 ft 494 kts 230°
2026-04-23 20:29 58.21037 18.95894 35983 ft 493 kts 230°
2026-04-23 20:30 58.15923 18.87228 35987 ft 493 kts 230°
2026-04-23 20:30 58.08258 18.74308 35995 ft 492 kts 230°
2026-04-23 20:31 58.03148 18.65743 35996 ft 491 kts 229°
2026-04-23 20:31 57.98039 18.57207 35997 ft 490 kts 229°
2026-04-23 20:32 57.92924 18.48695 35993 ft 490 kts 230°
2026-04-23 20:32 57.87813 18.40228 35989 ft 490 kts 229°
2026-04-23 20:33 57.82697 18.31782 35995 ft 489 kts 229°
2026-04-23 20:33 57.77583 18.23375 35991 ft 489 kts 229°
2026-04-23 20:34 57.72460 18.14985 35994 ft 489 kts 229°
2026-04-23 20:34 57.67342 18.06633 35989 ft 489 kts 229°
2026-04-23 20:35 57.62215 17.98299 35994 ft 489 kts 229°
2026-04-23 20:35 57.57082 17.89990 35991 ft 489 kts 229°
2026-04-23 20:36 57.51977 17.81757 35989 ft 489 kts 229°
2026-04-23 20:36 57.46834 17.73495 35995 ft 489 kts 229°
2026-04-23 20:37 57.41679 17.65245 35996 ft 489 kts 229°
2026-04-23 20:37 57.36519 17.57021 36001 ft 489 kts 229°
2026-04-23 20:38 57.31350 17.48814 35997 ft 490 kts 229°
2026-04-23 20:38 57.26174 17.40627 36001 ft 490 kts 228°
2026-04-23 20:39 57.20994 17.32465 36001 ft 490 kts 228°
2026-04-23 20:39 57.15800 17.24313 36008 ft 490 kts 228°
2026-04-23 20:40 57.10605 17.16188 36008 ft 490 kts 228°
2026-04-23 20:40 57.05405 17.08091 36010 ft 490 kts 228°
2026-04-23 20:41 57.00210 17.00031 36013 ft 489 kts 228°
2026-04-23 20:41 56.95013 16.91994 36018 ft 488 kts 228°
2026-04-23 20:42 56.89813 16.83989 36020 ft 488 kts 228°
2026-04-23 20:42 56.84614 16.76007 36015 ft 487 kts 227°
2026-04-23 20:43 56.79418 16.68064 36018 ft 487 kts 227°
2026-04-23 20:43 56.74220 16.60149 36019 ft 487 kts 227°
2026-04-23 20:44 56.69016 16.52255 36021 ft 486 kts 227°
2026-04-23 20:44 56.63813 16.44386 36017 ft 486 kts 227°
2026-04-23 20:45 56.58611 16.36552 36018 ft 486 kts 227°
2026-04-23 20:45 56.53409 16.28748 36018 ft 485 kts 227°
2026-04-23 20:46 56.48199 16.20960 36020 ft 485 kts 227°
2026-04-23 20:46 56.42974 16.13177 36254 ft 488 kts 227°
2026-04-23 20:47 56.40389 16.09338 36504 ft 486 kts 227°
2026-04-23 20:47 56.37747 16.05421 36761 ft 485 kts 227°
2026-04-23 20:47 56.35179 16.01622 37062 ft 482 kts 227°
2026-04-23 20:47 56.32564 15.97765 37389 ft 478 kts 227°
2026-04-23 20:48 56.30029 15.94031 37640 ft 476 kts 227°
2026-04-23 20:48 56.27434 15.90212 37870 ft 475 kts 227°
2026-04-23 20:48 56.24910 15.86501 38018 ft 475 kts 226°
2026-04-23 20:48 56.22346 15.82736 38022 ft 478 kts 226°
2026-04-23 20:49 56.17188 15.75183 38032 ft 478 kts 226°
2026-04-23 20:49 56.12031 15.67672 38023 ft 476 kts 226°
2026-04-23 20:50 56.06894 15.60217 38025 ft 475 kts 226°
2026-04-23 20:50 56.01766 15.52792 38028 ft 473 kts 226°
2026-04-23 20:51 55.96646 15.45406 38022 ft 472 kts 226°
2026-04-23 20:51 55.91535 15.38061 38028 ft 472 kts 226°
2026-04-23 20:52 55.86423 15.30739 38029 ft 471 kts 226°
2026-04-23 20:52 55.82170 15.24661 38029 ft 472 kts 226°
2026-04-23 20:53 55.77010 15.17319 38043 ft 472 kts 225°
2026-04-23 20:53 55.71903 15.10082 38052 ft 473 kts 225°
2026-04-23 20:54 55.66755 15.02806 38059 ft 474 kts 225°
2026-04-23 20:54 55.61587 14.95525 38056 ft 475 kts 225°
2026-04-23 20:55 55.56417 14.88269 38066 ft 475 kts 225°
2026-04-23 20:55 55.51232 14.81018 38066 ft 475 kts 225°
2026-04-23 20:56 55.46044 14.73789 38064 ft 475 kts 225°
2026-04-23 20:56 55.40855 14.66582 38072 ft 475 kts 224°
2026-04-23 20:57 55.35668 14.59402 38070 ft 474 kts 224°
2026-04-23 20:57 55.30489 14.52257 38076 ft 473 kts 224°
2026-04-23 20:58 55.25309 14.45135 38070 ft 473 kts 224°
2026-04-23 20:58 55.20147 14.38024 38067 ft 472 kts 224°
2026-04-23 20:59 55.14972 14.30964 38069 ft 471 kts 224°
2026-04-23 20:59 55.09799 14.23952 38077 ft 471 kts 224°
2026-04-23 21:00 55.04632 14.16949 38071 ft 470 kts 224°
2026-04-23 21:00 54.99462 14.09954 38077 ft 471 kts 224°
2026-04-23 21:01 54.94286 14.02969 38082 ft 470 kts 225°
2026-04-23 21:01 54.89902 13.94817 38081 ft 455 kts 244°
2026-04-23 21:02 54.86614 13.85500 38080 ft 453 kts 245°
2026-04-23 21:02 54.83342 13.76147 38084 ft 454 kts 245°
2026-04-23 21:03 54.80049 13.66884 38078 ft 455 kts 244°
2026-04-23 21:03 54.76708 13.57583 38087 ft 455 kts 244°
2026-04-23 21:04 54.73355 13.48305 38094 ft 455 kts 244°
2026-04-23 21:04 54.69985 13.39021 38093 ft 456 kts 244°
2026-04-23 21:05 54.66608 13.29744 38095 ft 456 kts 244°
2026-04-23 21:05 54.63224 13.20481 38101 ft 456 kts 243°
2026-04-23 21:06 54.59836 13.11241 38103 ft 455 kts 243°
2026-04-23 21:06 54.56445 13.02024 38055 ft 456 kts 243°
2026-04-23 21:07 54.54733 12.97380 37577 ft 461 kts 243°
2026-04-23 21:07 54.53012 12.92727 37043 ft 459 kts 243°
2026-04-23 21:07 54.51297 12.88100 36489 ft 458 kts 243°
2026-04-23 21:07 54.49584 12.83488 35905 ft 457 kts 243°
2026-04-23 21:08 54.47869 12.78878 35256 ft 458 kts 243°
2026-04-23 21:08 54.46148 12.74257 34602 ft 460 kts 243°
2026-04-23 21:08 54.44417 12.69622 33935 ft 461 kts 243°
2026-04-23 21:08 54.42690 12.65008 33492 ft 457 kts 243°
2026-04-23 21:09 54.40971 12.60422 32999 ft 455 kts 243°
2026-04-23 21:09 54.39265 12.55879 32533 ft 452 kts 242°
2026-04-23 21:09 54.37569 12.51371 32067 ft 448 kts 242°
2026-04-23 21:09 54.35904 12.46947 31605 ft 446 kts 242°
2026-04-23 21:10 54.34228 12.42508 31141 ft 443 kts 242°
2026-04-23 21:10 54.32560 12.38091 30686 ft 440 kts 242°
2026-04-23 21:10 54.30900 12.33707 30222 ft 437 kts 242°
2026-04-23 21:10 54.29254 12.29364 29766 ft 434 kts 242°
2026-04-23 21:11 54.27614 12.25046 29299 ft 431 kts 242°
2026-04-23 21:11 54.25987 12.20770 28831 ft 428 kts 242°
2026-04-23 21:11 54.24369 12.16522 28375 ft 425 kts 242°
2026-04-23 21:11 54.22761 12.12308 27919 ft 422 kts 242°
2026-04-23 21:12 54.21163 12.08134 27443 ft 419 kts 242°
2026-04-23 21:12 54.19512 12.04042 26942 ft 418 kts 239°
2026-04-23 21:12 54.17801 12.00036 26487 ft 416 kts 238°
2026-04-23 21:12 54.16077 11.96087 26035 ft 413 kts 238°
2026-04-23 21:13 54.14362 11.92176 25591 ft 411 kts 238°
2026-04-23 21:13 54.12659 11.88285 25142 ft 408 kts 238°
2026-04-23 21:13 54.10974 11.84421 24701 ft 405 kts 239°
2026-04-23 21:13 54.09304 11.80581 24256 ft 402 kts 239°
2026-04-23 21:14 54.07648 11.76770 23796 ft 400 kts 239°
2026-04-23 21:14 54.05999 11.72974 23368 ft 397 kts 239°
2026-04-23 21:14 54.04364 11.69214 22933 ft 394 kts 239°
2026-04-23 21:14 54.02738 11.65481 22506 ft 391 kts 238°
2026-04-23 21:15 54.01125 11.61784 22092 ft 388 kts 238°
2026-04-23 21:15 53.99520 11.58111 21661 ft 385 kts 238°
2026-04-23 21:15 53.97928 11.54468 21239 ft 383 kts 238°
2026-04-23 21:15 53.96347 11.50862 20873 ft 378 kts 238°
2026-04-23 21:16 53.94783 11.47296 20466 ft 375 kts 238°
2026-04-23 21:16 53.93232 11.43767 19935 ft 371 kts 238°
2026-04-23 21:16 53.91691 11.40264 19304 ft 369 kts 238°
2026-04-23 21:16 53.90159 11.36785 18679 ft 367 kts 238°
2026-04-23 21:17 53.88635 11.33330 18061 ft 364 kts 238°
2026-04-23 21:17 53.87124 11.29907 17441 ft 362 kts 237°
2026-04-23 21:17 53.85619 11.26505 16814 ft 359 kts 237°
2026-04-23 21:17 53.84128 11.23133 16181 ft 357 kts 237°
2026-04-23 21:18 53.82641 11.19780 15568 ft 355 kts 237°
2026-04-23 21:18 53.81167 11.16463 15068 ft 350 kts 237°
2026-04-23 21:18 53.79710 11.13191 14743 ft 346 kts 237°
2026-04-23 21:18 53.78272 11.09960 14387 ft 342 kts 237°
2026-04-23 21:19 53.76844 11.06755 14004 ft 341 kts 237°
2026-04-23 21:19 53.75421 11.03562 13616 ft 339 kts 237°
2026-04-23 21:19 53.74005 11.00393 13216 ft 337 kts 237°
2026-04-23 21:19 53.72591 10.97235 12836 ft 336 kts 237°
2026-04-23 21:20 53.71201 10.94084 12434 ft 333 kts 240°
2026-04-23 21:20 53.70123 10.90681 12030 ft 326 kts 251°
2026-04-23 21:20 53.69244 10.87200 11834 ft 318 kts 252°
2026-04-23 21:20 53.68399 10.83822 11760 ft 307 kts 252°
2026-04-23 21:21 53.67573 10.80570 11676 ft 296 kts 252°
2026-04-23 21:21 53.66763 10.77438 11582 ft 287 kts 251°
2026-04-23 21:21 53.65960 10.74380 11375 ft 283 kts 251°
2026-04-23 21:21 53.65162 10.71356 11074 ft 282 kts 251°
2026-04-23 21:22 53.64366 10.68343 10765 ft 282 kts 251°
2026-04-23 21:22 53.63527 10.65366 10484 ft 281 kts 248°
2026-04-23 21:22 53.62633 10.62446 10193 ft 280 kts 248°
2026-04-23 21:22 53.61738 10.59553 9900 ft 278 kts 248°
2026-04-23 21:23 53.60849 10.56662 9602 ft 277 kts 248°
2026-04-23 21:23 53.59969 10.53785 9342 ft 275 kts 248°
2026-04-23 21:23 53.59097 10.50935 9076 ft 273 kts 248°
2026-04-23 21:23 53.58241 10.48139 8978 ft 264 kts 248°
2026-04-23 21:24 53.57621 10.45336 8831 ft 249 kts 270°
2026-04-23 21:24 53.57855 10.42578 8663 ft 233 kts 295°
2026-04-23 21:24 53.58645 10.40293 8421 ft 227 kts 313°
2026-04-23 21:24 53.59821 10.38494 8153 ft 225 kts 321°
2026-04-23 21:25 53.61029 10.36828 7878 ft 225 kts 321°
2026-04-23 21:25 53.62213 10.35191 7714 ft 221 kts 321°
2026-04-23 21:25 53.63398 10.33546 7575 ft 220 kts 321°
2026-04-23 21:25 53.64578 10.31908 7468 ft 220 kts 323°
2026-04-23 21:26 53.65982 10.30894 7342 ft 225 kts 352°
2026-04-23 21:26 53.67542 10.31204 7251 ft 232 kts 16°
2026-04-23 21:26 53.68920 10.32690 7120 ft 242 kts 40°
2026-04-23 21:26 53.70020 10.34834 6978 ft 240 kts 44°
2026-04-23 21:27 53.71079 10.37008 6736 ft 239 kts 45°
2026-04-23 21:27 53.72129 10.39181 6474 ft 240 kts 45°
2026-04-23 21:27 53.73190 10.41354 6218 ft 239 kts 45°
2026-04-23 21:27 53.74249 10.43510 5979 ft 237 kts 45°
2026-04-23 21:28 53.75294 10.45639 5830 ft 233 kts 44°
2026-04-23 21:28 53.76316 10.47726 5665 ft 228 kts 44°
2026-04-23 21:28 53.77314 10.49762 5535 ft 222 kts 44°
2026-04-23 21:28 53.78335 10.51743 5182 ft 225 kts 34°
2026-04-23 21:29 53.79674 10.52723 5054 ft 203 kts 358°
2026-04-23 21:29 53.81013 10.52332 5009 ft 192 kts 336°
2026-04-23 21:29 53.82140 10.51080 4904 ft 199 kts 320°
2026-04-23 21:29 53.83223 10.49569 4788 ft 203 kts 321°
2026-04-23 21:30 53.84290 10.47995 4637 ft 204 kts 311°
2026-04-23 21:30 53.84869 10.45814 4513 ft 208 kts 281°
2026-04-23 21:30 53.84731 10.43367 4399 ft 214 kts 255°
2026-04-23 21:30 53.83939 10.41180 4272 ft 221 kts 236°
2026-04-23 21:31 53.82954 10.39184 4150 ft 220 kts 236°
2026-04-23 21:31 53.81958 10.37170 4050 ft 224 kts 236°
2026-04-23 21:31 53.80950 10.35157 3938 ft 224 kts 236°
2026-04-23 21:31 53.79953 10.33178 3783 ft 216 kts 236°
2026-04-23 21:32 53.79003 10.31293 3651 ft 205 kts 236°
2026-04-23 21:32 53.78102 10.29498 3528 ft 194 kts 236°
2026-04-23 21:32 53.77246 10.27779 3458 ft 190 kts 237°
2026-04-23 21:32 53.76413 10.26073 3380 ft 187 kts 237°
2026-04-23 21:33 53.75585 10.24372 3301 ft 188 kts 237°
2026-04-23 21:33 53.74752 10.22662 3190 ft 190 kts 237°
2026-04-23 21:33 53.73910 10.20949 3086 ft 189 kts 237°
2026-04-23 21:33 53.73072 10.19241 2999 ft 189 kts 237°
2026-04-23 21:34 53.72241 10.17487 2694 ft 192 kts 237°
2026-04-23 21:34 53.71412 10.15785 2451 ft 182 kts 237°
2026-04-23 21:34 53.70623 10.14185 2188 ft 172 kts 236°
2026-04-23 21:34 53.69881 10.12689 1957 ft 162 kts 236°
2026-04-23 21:35 53.69172 10.11253 1768 ft 154 kts 236°
2026-04-23 21:35 53.68516 10.09921 1563 ft 145 kts 236°
2026-04-23 21:35 53.67880 10.08631 1380 ft 146 kts 235°
2026-04-23 21:35 53.67221 10.07297 1173 ft 146 kts 235°
2026-04-23 21:36 53.65932 10.04689 788 ft 143 kts 234°
2026-04-23 21:36 53.65309 10.03426 611 ft 141 kts 234°
2026-04-23 21:36 53.64686 10.02163 416 ft 139 kts 234°
2026-04-23 21:37 53.64064 10.00902 232 ft 138 kts 233°
2026-04-23 21:37 53.63464 9.99690 51 ft 133 kts 233°
2026-04-23 21:37 53.62951 9.98639 44 ft 89 kts 230°
2026-04-23 21:37 53.62687 9.98110 41 ft 42 kts 230°
2026-04-23 21:38 53.62543 9.97824 40 ft 18 kts 229°
2026-04-23 21:38 53.62440 9.97833 42 ft 17 kts 129°
2026-04-23 21:38 53.62444 9.98020 46 ft 16 kts 70°
2026-04-23 21:38 53.62504 9.98176 46 ft 16 kts 50°
2026-04-23 21:39 53.62579 9.98327 46 ft 19 kts 50°
2026-04-23 21:39 53.62674 9.98516 46 ft 24 kts 50°
2026-04-23 21:39 53.62789 9.98751 46 ft 28 kts 50°
2026-04-23 21:39 53.62916 9.99007 46 ft 30 kts 50°
2026-04-23 21:40 53.62991 9.99157 44 ft 20 kts 51°
2026-04-23 21:40 53.63077 9.99350 44 ft 20 kts 54°
2026-04-23 21:40 53.63159 9.99543 45 ft 15 kts 51°
2026-04-23 21:40 53.63208 9.99642 45 ft 0 kts 50°
2026-04-23 21:41 53.63209 9.99644 47 ft 0 kts 50°
2026-04-23 21:41 53.63226 9.99712 47 ft 9 kts 90°
2026-04-23 21:41 53.63191 9.99789 46 ft 8 kts 148°
2026-04-23 21:41 53.63140 9.99835 47 ft 8 kts 153°
2026-04-23 21:42 53.63089 9.99876 45 ft 8 kts 154°
2026-04-23 21:42 53.63041 9.99918 47 ft 8 kts 152°
2026-04-23 21:42 53.62994 9.99959 47 ft 8 kts 153°
2026-04-23 21:42 53.62950 10.00016 47 ft 8 kts 120°
2026-04-23 21:43 53.62959 10.00101 47 ft 8 kts 47°
2026-04-23 21:43 53.63003 10.00153 45 ft 8 kts 34°
2026-04-23 21:43 53.63060 10.00214 47 ft 10 kts 26°
2026-04-23 21:43 53.63132 10.00223 47 ft 10 kts 355°
2026-04-23 21:44 53.63178 10.00217 47 ft 0 kts 356°
2026-04-23 21:44 53.63181 10.00217 47 ft 0 kts 356°
2026-04-23 21:44 53.63197 10.00215 47 ft 9 kts 356°
2026-04-23 21:44 53.63250 10.00209 47 ft 5 kts 356°
2026-04-23 21:45 53.63280 10.00227 46 ft 5 kts 51°
2026-04-23 21:45 53.63289 10.00280 47 ft 5 kts 81°
2026-04-23 21:45 53.63291 10.00330 47 ft 4 kts 87°
2026-04-23 21:45 53.63292 10.00350 47 ft 1 kts 87°